Overview Statistics Trail Chart Weather Telemetry Raw packets
 

This is the latest recevied weather packets stored in our database for station/object KN6CRX-10. If no packets are shown the sender has not sent any weather packets the latest 10 day(s).

<< 33 34 35 36 37 38 39 >>
Time Temp. Humidity Pressure Rain* Wind** Luminosity Snow
1788177097 7.22° C 74% 1020.9 hPa 0 mm - 0 W/m² -
1788176795 7.22° C 72% 1020.7 hPa 0 mm - 0 W/m² -
1788176491 7.22° C 72% 1020.9 hPa 0 mm - 0 W/m² -
1788176191 7.22° C 72% 1020.9 hPa 0 mm - 0 W/m² -
1788175886 7.22° C 74% 1021 hPa 0 mm - 0 W/m² -
1788175585 7.78° C 72% 1020.9 hPa 0 mm - 0 W/m² -
1788175280 7.78° C 73% 1020.7 hPa 0 mm - 0 W/m² -
1788174976 7.78° C 71% 1020.9 hPa 0 mm - 0 W/m² -
1788174672 7.78° C 70% 1021.2 hPa 0 mm - 0 W/m² -
1788174367 7.78° C 69% 1020.8 hPa 0 mm - 0 W/m² -
1788174063 8.33° C 69% 1020.8 hPa 0 mm - 0 W/m² -
1788173761 7.78° C 70% 1020.8 hPa 0 mm - 0 W/m² -
1788173456 7.78° C 72% 1020.9 hPa 0 mm - 0 W/m² -
1788173152 7.78° C 73% 1020.8 hPa 0 mm - 0 W/m² -
1788172848 7.78° C 74% 1020.9 hPa 0 mm - 0 W/m² -
1788172543 7.78° C 74% 1020.9 hPa 0 mm - 0 W/m² -
1788172239 8.33° C 73% 1020.9 hPa 0 mm - 0 W/m² -
1788171939 8.33° C 75% 1021 hPa 0 mm - 0 W/m² -
1788171634 8.33° C 71% 1020.7 hPa 0 mm - 0 W/m² -
1788171329 8.33° C 70% 1020.9 hPa 0 mm - 0 W/m² -
1788171025 8.89° C 70% 1020.5 hPa 0 mm - 0 W/m² -
1788170721 8.89° C 69% 1020.9 hPa 0 mm - 0 W/m² -
1788170417 8.89° C 68% 1020.7 hPa 0 mm - 0 W/m² -
1788170115 8.89° C 68% 1020.8 hPa 0 mm - 0 W/m² -
1788169809 9.44° C 66% 1020.8 hPa 0 mm - 0 W/m² -

* Rain latest hour (hover to see other rain measurements)
** Current wind speed in m/s (hover to see current wind gust speed)